This demonstration page uses our WeatherBlox Daily Observations layout. Learn more.

Hourly Observations for January 7, 2018

Temp ( °F °C ) Dew Point ( °F °C ) Humidity (%) Winds ( mph kmh ) Pressure ( in mb ) Visibility ( mi km ) Precip ( " mm )
12:15 am 00:15 Partly Cloudy 29 -1.7 20 -6.5 70 70 S 8 13 30 1016 10 16.0934 0 0
12:35 am 00:35 Clear 29 -1.7 20 -6.5 70 70 S 8 13 30 1016 10 16.0934 0 0
12:55 am 00:55 Clear 29 -1.6 20 -6.5 70 70 S 9 15 30 1016 10 16.0934 0 0
1:15 am 01:15 Clear 29 -1.6 20 -6.5 70 70 S 7 11 29.94 1014 10 16.0934 0 0
1:35 am 01:35 Clear 29 -1.5 20 -6.5 69 69 S 8 13 29.94 1014 10 16.0934 0 0
1:55 am 01:55 Clear 29 -1.7 21 -6.3 71 71 SSW 8 13 29.94 1014 10 16.0934 0 0
2:15 am 02:15 Mostly Cloudy 28 -2 21 -6.3 73 73 S 6 9 29.91 1013 10 16.0934 0 0
2:35 am 02:35 Partly Cloudy 28 -2.4 20 -6.5 74 74 SSW 5 7 29.94 1014 10 16.0934 0 0
2:55 am 02:55 Clear 26 -3.2 20 -6.7 77 77 Calm 29.94 1014 10 16.0934 0 0
3:15 am 03:15 Clear 26 -3.1 20 -6.6 77 77 SSW 6 9 29.94 1014 10 16.0934 0 0
3:35 am 03:35 Clear 26 -3.2 20 -6.5 78 78 SW 7 11 29.94 1014 10 16.0934 0 0
3:55 am 03:55 Clear 27 -3 20 -6.5 77 77 SW 6 9 29.94 1014 10 16.0934 0 0
4:15 am 04:15 Partly Cloudy 28 -2.5 20 -6.5 74 74 S 9 15 29.94 1014 10 16.0934 0 0
4:35 am 04:35 Partly Cloudy 27 -2.6 20 -6.6 74 74 SSW 7 11 29.94 1014 10 16.0934 0 0
4:55 am 04:55 Clear 27 -2.7 20 -6.5 75 75 SSW 5 7 29.94 1014 10 16.0934 0 0
5:15 am 05:15 Clear 26 -3.4 20 -6.6 79 79 SW 5 7 29.94 1014 10 16.0934 0 0
5:35 am 05:35 Partly Cloudy 27 -2.8 20 -6.4 77 77 SSW 6 9 29.94 1014 10 16.0934 0 0
5:55 am 05:55 Mostly Cloudy 28 -2.5 21 -6.2 76 76 SW 3 6 29.94 1014 10 16.0934 0 0
6:15 am 06:15 Cloudy 28 -2.4 21 -5.9 77 77 Calm 29.94 1014 10 16.0934 0 0
6:35 am 06:35 Cloudy 28 -2 22 -5.7 76 76 NW 3 6 29.97 1015 10 16.0934 0 0
6:55 am 06:55 Cloudy 28 -2.5 22 -5.5 80 80 Calm 29.97 1015 10 16.0934 0 0
7:15 am 07:15 Cloudy 28 -2.5 22 -5.5 80 80 NW 3 6 29.97 1015 10 16.0934 0 0
7:35 am 07:35 Cloudy 28 -2.5 23 -5.2 82 82 Calm 29.97 1015 10 16.0934 0 0
7:55 am 07:55 Cloudy 28 -2.3 23 -5 82 82 Calm 29.97 1015 10 16.0934 0 0
8:15 am 08:15 Cloudy 28 -2 23 -5 80 80 WNW 5 7 29.97 1015 10 16.0934 0 0
8:35 am 08:35 Cloudy 30 -1.1 24 -4.3 79 79 NW 7 11 29.97 1015 10 16.0934 0 0
8:55 am 08:55 Cloudy 31 -0.6 26 -3.6 80 80 NNW 6 9 29.97 1015 10 16.0934 0 0
9:15 am 09:15 Cloudy 32 0 28 -2.5 83 83 WNW 7 11 29.97 1015 10 16.0934 0 0
9:35 am 09:35 Cloudy with Light Rain 33 0.4 29 -1.6 87 87 WNW 5 7 30 1016 10 16.0934 0 0
9:55 am 09:55 Cloudy 34 1.3 31 -0.6 87 87 WNW 3 6 30 1016 10 16.0934 0 0
10:15 am 10:15 Cloudy 36 2 32 -0.2 86 86 WNW 3 6 29.97 1015 10 16.0934 0 0
10:35 am 10:35 Cloudy 37 3 32 0.1 81 81 NW 5 7 29.97 1015 10 16.0934 0 0
10:55 am 10:55 Cloudy 39 3.7 33 0.6 80 80 NW 10 17 29.97 1015 10 16.0934 0 0
11:15 am 11:15 Cloudy 40 4.7 34 1 77 77 NW 7 11 29.97 1015 10 16.0934 0 0
11:35 am 11:35 Partly Cloudy 42 5.5 35 1.4 75 75 NNW 10 17 29.97 1015 10 16.0934 0 0
11:55 am 11:55 Sunny 43 6 35 1.6 74 74 NW 10 17 29.94 1014 10 16.0934 0 0
12:15 pm 12:15 Sunny 44 6.5 35 1.7 72 72 NNW 10 17 29.94 1014 10 16.0934 0 0
12:35 pm 12:35 Sunny 45 7.1 35 1.9 70 70 NW 12 19 29.94 1014 10 16.0934 0 0
12:55 pm 12:55 Sunny 46 7.7 36 2 68 68 NW 12 19 29.94 1014 10 16.0934 0 0
1:15 pm 13:15 Sunny 46 7.5 35 1.8 67 67 NW 15 24 29.94 1014 10 16.0934 0 0
1:35 pm 13:35 Sunny 46 7.8 35 1.9 67 67 NW 16 26 29.94 1014 10 16.0934 0 0
1:55 pm 13:55 Sunny 46 8 36 2 66 66 NW 20 31 29.94 1014 10 16.0934 0 0
2:15 pm 14:15 Sunny 46 8 35 1.8 65 65 NW 14 22 29.91 1013 10 16.0934 0 0
2:35 pm 14:35 Partly Cloudy 47 8.4 36 2.1 65 65 NW 16 26 29.91 1013 10 16.0934 0 0
2:55 pm 14:55 Partly Cloudy 47 8.2 35 1.9 65 65 NW 18 30 29.94 1014 10 16.0934 0 0
3:15 pm 15:15 Sunny 47 8.1 36 2 66 66 NW 16 26 29.94 1014 10 16.0934 0 0
3:35 pm 15:35 Sunny 46 8 36 2 66 66 NW 16 26 29.94 1014 10 16.0934 0 0
3:55 pm 15:55 Sunny 46 8 36 2 66 66 NNW 15 24 29.94 1014 10 16.0934 0 0
4:15 pm 16:15 Sunny 46 7.6 36 2.1 68 68 NNW 13 20 29.97 1015 10 16.0934 0 0
4:35 pm 16:35 Sunny 45 7.1 36 2.1 71 71 NW 10 17 29.97 1015 10 16.0934 0 0
4:55 pm 16:55 Sunny 43 6.2 36 2 75 75 NNW 7 11 29.97 1015 10 16.0934 0 0
5:15 pm 17:15 Sunny 42 5.4 35 1.5 76 76 NW 6 9 30.03 1017 10 16.0934 0 0
5:35 pm 17:35 Clear 38 3.5 33 0.5 81 81 NW 6 9 30.03 1017 10 16.0934 0 0
5:55 pm 17:55 Clear 38 3.2 33 0.3 82 82 NNW 7 11 30.03 1017 10 16.0934 0 0
6:15 pm 18:15 Clear 37 3 32 0.1 81 81 NNW 10 17 30.03 1017 10 16.0934 0 0
6:35 pm 18:35 Clear 37 2.5 32 0 84 84 NNW 7 11 30.09 1019 10 16.0934 0 0
6:55 pm 18:55 Clear 37 2.5 32 0 84 84 NNW 8 13 30.09 1019 10 16.0934 0 0
7:15 pm 19:15 Clear 37 2.7 32 0.2 84 84 NNW 8 13 30.09 1019 10 16.0934 0 0
7:35 pm 19:35 Clear 37 2.7 32 0.2 84 84 NNW 8 13 30.12 1020 10 16.0934 0 0
7:55 pm 19:55 Clear 37 2.7 33 0.3 84 84 NNW 9 15 30.12 1020 10 16.0934 0 0
8:15 pm 20:15 Clear 37 2.6 32 0.2 84 84 NNW 9 15 30.12 1020 10 16.0934 0 0
8:35 pm 20:35 Clear 36 2.2 32 0 86 86 NNW 8 13 30.12 1020 10 16.0934 0 0
8:55 pm 20:55 Clear 37 2.5 32 0.1 84 84 NNW 12 19 30.12 1020 10 16.0934 0 0
9:15 pm 21:15 Clear 36 2.1 32 0 86 86 NNW 8 13 30.12 1020 10 16.0934 0 0
9:35 pm 21:35 Clear 35 1.4 32 -0.2 89 89 NW 8 13 30.12 1020 10 16.0934 0 0
9:55 pm 21:55 Clear 32 0 30 -1.1 92 92 NW 9 15 30.12 1020 10 16.0934 0 0
10:15 pm 22:15 Clear 32 0 31 -0.6 96 96 WNW 7 11 30.18 1022 10 16.0934 0 0
10:35 pm 22:35 Clear 31 -0.5 30 -1.3 94 94 NW 7 11 30.18 1022 10 16.0934 0 0
10:55 pm 22:55 Clear 31 -0.4 30 -1.1 95 95 W 7 11 30.18 1022 10 16.0934 0 0
11:15 pm 23:15 Clear 32 0.1 31 -0.4 96 96 W 8 13 30.18 1022 10 16.0934 0 0
11:35 pm 23:35 Clear 32 0 30 -1 93 93 WNW 8 13 30.18 1022 10 16.0934 0 0
11:55 pm 23:55 Clear 31 -0.7 29 -1.4 95 95 WNW 7 11 30.21 1023 10 16.0934 0 0

Powered by AerisWeather